Regional Weather Roundup
Issued by NWS Kansas City/Pleasant Hill, MO

Home | Current Version | Previous Version | Text Only | Print | Product List | Glossary On
Versions: 1 2 3 4 5 6 7 8 9 10 11 12 13 14 15 16 17 18 19 20 21 22 23 24 25 26 27
000
ASUS43 KEAX 240310
RWREAX

WEATHER ROUNDUP FOR EASTERN KANSAS AND NORTHWEST MISSOURI
NATIONAL WEATHER SERVICE KANSAS CITY/PLEASANT HILL MO
1000 PM CDT THU MAR 23 2017

KSZ040-057-103>105-MOZ028-029-037-043-240400-
...KANSAS CITY METROPOLITAN AREA...

CITY           SKY/WX    TMP DP  RH WIND       PRES   REMARKS
K.C. INTL      CLOUDY    71  45  39 S23G31    29.79R
K.C. DOWNTOWN  MOCLDY    73  45  36 S13G24    29.78S
LEES SUMMIT    PTCLDY    71  45  39 S17G26    29.81S
OLATHE - IXD   PTCLDY    69  46  43 S20G26    29.79S
OLATHE - OJC   PTCLDY    68  47  46 S18G26    29.79S
LAWRENCE       PTCLDY    69  47  45 SE20G28   29.77R

$$

MOZ001>008-011>017-020>025-030>033-038>040-044>046-053-054-240400-
...NORTHERN AND CENTRAL MISSOURI...

CITY           SKY/WX    TMP DP  RH WIND       PRES   REMARKS
ST. JOSEPH     PTCLDY    72  46  39 S16       29.76R
MOSBY          MOCLDY    72  41  33 S14G22    29.80S
WARRENSBURG    PTCLDY    68  43  40 S14       29.82F
WHITEMAN AFB   CLEAR     69  48  46 S16G22    29.83R
CLINTON        PTCLDY    68  45  42 S14       29.86S
SEDALIA        CLEAR     72  49  44 S22       29.87S
WARSAW         NOT AVBL
CHILLICOTHE      N/A     70  48  45 S9        29.82R
KIRKSVILLE     CLOUDY    54  32  43 SE13      29.85F

$$

MOZ041-047>049-056>058-063>065-088>090-097-240400-
...EASTERN AND SOUTHERN MISSOURI...

CITY           SKY/WX    TMP DP  RH WIND       PRES   REMARKS
ST. LOUIS INTL CLEAR     60  43  53 S14       30.01S
SPIRIT OF STL  CLEAR     62  46  55 S9        29.99S
COLUMBIA       CLEAR     68  52  56 S17       29.90S
JEFFERSON CITY CLEAR     72  50  45 S16       29.92R
ROLLA          CLEAR     64  51  62 S15G24    29.96S
OSAGE BEACH    CLEAR    N/A N/A N/A S17G23    29.93S
SPRINGFIELD    CLEAR     69  51  52 S20       29.92S
JOPLIN         CLEAR     71  48  43 SE15      29.85F
WEST PLAINS    CLEAR     63  50  62 SE7       30.04S

$$

IAZ060-094-KSZ022-034>040-054-083-096-NEZ052-066-093-240400-
...KANSAS...SOUTHEAST NEBRASKA AND IOWA...

CITY           SKY/WX    TMP DP  RH WIND       PRES   REMARKS
TOPEKA         CLOUDY    70  49  47 SE18G24   29.74S
MANHATTAN      CLOUDY    71  51  49 S14       29.70R
EMPORIA        PTCLDY    70  52  52 S25G31    29.74R
CHANUTE        CLEAR     71  49  45 SE20G30   29.79R
WICHITA        CLOUDY    74  46  36 S23G33    29.71R
OMAHA          CLOUDY    73  50  44 S26G33    29.65R
LINCOLN        LGT RAIN  71  51  49 SE36G46   29.58F
FALLS CITY     CLOUDY    71  47  42 S18G28    29.71R
LAMONI         PTCLDY    69  48  47 S14G22    29.77R
DES MOINES     MOCLDY    56  39  53 SE12      29.76F

$$





USA.gov is the U.S. government's official web portal to all federal, state and local government web resources and services.